This is the latest recevied weather packets stored in our database for station/object WA0LM. If no packets are shown the sender has not sent any weather packets the latest 10 day(s).
| Time | Temp. | Humidity | Pressure | Rain* | Wind** | Luminosity | Snow |
|---|---|---|---|---|---|---|---|
| 1777656679 | 8.33° C | 42% | 1017.9 hPa | 0 mm | - | 793 W/m² | - |
| 1777656375 | 9.44° C | 43% | 1018.1 hPa | 0 mm | - | 789 W/m² | - |
| 1777656070 | 9.44° C | 44% | 1018.1 hPa | 0 mm | - | 799 W/m² | - |
| 1777655761 | 9.44° C | 44% | 1018.1 hPa | 0 mm | - | 744 W/m² | - |
| 1777655458 | 7.78° C | 48% | 1018.2 hPa | 0 mm | - | 867 W/m² | - |
| 1777655155 | 8.33° C | 47% | 1018.2 hPa | 0 mm | - | 462 W/m² | - |
| 1777654852 | 7.22° C | 46% | 1018.1 hPa | 0 mm | - | 892 W/m² | - |
| 1777654549 | 7.22° C | 48% | 1018.2 hPa | 0 mm | - | 200 W/m² | - |
| 1777654246 | 7.78° C | 49% | 1018.1 hPa | 0 mm | - | 303 W/m² | - |
| 1777653944 | 6.67° C | 50% | 1018.2 hPa | 0 mm | - | 278 W/m² | - |
| 1777653640 | 7.78° C | 49% | 1018.1 hPa | 0 mm | - | 298 W/m² | - |
| 1777653337 | 6.67° C | 51% | 1018.3 hPa | 0 mm | - | 960 W/m² | - |
| 1777653034 | 6.67° C | 55% | 1018.2 hPa | 0 mm | - | 392 W/m² | - |
| 1777652730 | 6.67° C | 54% | 1018.3 hPa | 0 mm | - | 193 W/m² | - |
| 1777652427 | 7.22° C | 48% | 1018.3 hPa | 0 mm | - | 164 W/m² | - |
| 1777652124 | 7.78° C | 49% | 1018.2 hPa | 0 mm | - | 176 W/m² | - |
| 1777651821 | 7.78° C | 51% | 1018.4 hPa | 0 mm | - | 321 W/m² | - |
| 1777651519 | 7.78° C | 55% | 1018.3 hPa | 0 mm | - | 879 W/m² | - |
| 1777651215 | 6.67° C | 55% | 1018.2 hPa | 0 mm | - | 675 W/m² | - |
| 1777650912 | 6.11° C | 57% | 1018.5 hPa | 0 mm | - | 144 W/m² | - |
| 1777650609 | 6.11° C | 56% | 1018.5 hPa | 0 mm | - | 156 W/m² | - |
| 1777650306 | 6.11° C | 54% | 1018.5 hPa | 0 mm | - | 190 W/m² | - |
| 1777650003 | 6.67° C | 55% | 1018.4 hPa | 0 mm | - | 186 W/m² | - |
| 1777649701 | 6.11° C | 53% | 1018.3 hPa | 0 mm | - | 177 W/m² | - |
| 1777649396 | 7.78° C | 46% | 1018.3 hPa | 0 mm | - | 207 W/m² | - |
* Rain latest hour (hover to see other rain measurements)
** Current wind speed in m/s (hover to see current wind gust speed)